Time,TemperatureF,DewpointF,PressureIn,WindDirection,WindDirectionDegrees,WindSpeedMPH,WindSpeedGustMPH,Humidity,HourlyPrecipIn,Conditions,Clouds,dailyrainin,SoftwareType,DateUTC
2013-07-21 00:04:00,76.5,73.0,29.90,SE,135,2.0,6.0,88,0.00,,,0.00,weatherlink.com 1.10,2013-07-21 05:04:00,
2013-07-21 00:20:00,76.3,73.0,29.90,ESE,118,5.0,7.0,89,0.00,,,0.00,weatherlink.com 1.10,2013-07-21 05:20:00,
2013-07-21 00:35:00,76.1,73.0,29.89,SE,135,3.0,5.0,89,0.00,,,0.00,weatherlink.com 1.10,2013-07-21 05:35:00,
2013-07-21 00:50:00,75.9,73.0,29.90,ESE,103,2.0,6.0,89,0.00,,,0.00,weatherlink.com 1.10,2013-07-21 05:50:00,
2013-07-21 01:05:00,75.7,73.0,29.89,ESE,108,3.0,6.0,90,0.00,,,0.00,weatherlink.com 1.10,2013-07-21 06:05:00,
2013-07-21 01:20:00,75.5,73.0,29.89,ESE,115,0.0,5.0,90,0.00,,,0.00,weatherlink.com 1.10,2013-07-21 06:20:00,
2013-07-21 01:35:00,75.2,72.0,29.89,ESE,121,6.0,7.0,90,0.00,,,0.00,weatherlink.com 1.10,2013-07-21 06:35:00,
2013-07-21 01:50:00,75.1,72.0,29.89,ESE,117,3.0,5.0,90,0.00,,,0.00,weatherlink.com 1.10,2013-07-21 06:50:00,
2013-07-21 02:05:00,75.0,72.0,29.88,SSW,193,1.0,4.0,90,0.00,,,0.00,weatherlink.com 1.10,2013-07-21 07:05:00,
2013-07-21 02:20:00,74.9,72.0,29.88,ESE,120,0.0,4.0,90,0.00,,,0.00,weatherlink.com 1.10,2013-07-21 07:20:00,
2013-07-21 02:35:00,74.7,72.0,29.89,SE,136,0.0,4.0,91,0.00,,,0.00,weatherlink.com 1.10,2013-07-21 07:35:00,
2013-07-21 02:50:00,74.5,72.0,29.89,South,177,1.0,4.0,91,0.00,,,0.00,weatherlink.com 1.10,2013-07-21 07:50:00,
2013-07-21 03:05:00,74.3,72.0,29.89,SE,141,0.0,0.0,91,0.00,,,0.00,weatherlink.com 1.10,2013-07-21 08:05:00,
2013-07-21 03:20:00,74.0,72.0,29.89,ESE,108,0.0,1.0,92,0.00,,,0.00,weatherlink.com 1.10,2013-07-21 08:20:00,
2013-07-21 03:35:00,74.0,72.0,29.89,ESE,119,1.0,4.0,92,0.00,,,0.00,weatherlink.com 1.10,2013-07-21 08:35:00,
2013-07-21 03:50:00,73.9,72.0,29.89,ESE,115,2.0,3.0,93,0.00,,,0.00,weatherlink.com 1.10,2013-07-21 08:50:00,
2013-07-21 04:05:00,73.7,72.0,29.89,SE,124,0.0,3.0,93,0.00,,,0.00,weatherlink.com 1.10,2013-07-21 09:05:00,
2013-07-21 04:20:00,73.5,71.0,29.90,SE,127,1.0,1.0,93,0.00,,,0.00,weatherlink.com 1.10,2013-07-21 09:20:00,
2013-07-21 04:35:00,73.3,72.0,29.90,ESE,110,1.0,3.0,94,0.00,,,0.00,weatherlink.com 1.10,2013-07-21 09:35:00,
2013-07-21 04:50:00,73.3,72.0,29.89,SE,131,2.0,2.0,94,0.00,,,0.00,weatherlink.com 1.10,2013-07-21 09:50:00,
2013-07-21 05:06:00,73.3,72.0,29.89,SE,131,1.0,3.0,95,0.00,,,0.00,weatherlink.com 1.10,2013-07-21 10:06:00,
2013-07-21 05:20:00,73.2,72.0,29.89,ESE,118,0.0,3.0,95,0.00,,,0.00,weatherlink.com 1.10,2013-07-21 10:20:00,
2013-07-21 05:35:00,73.3,72.0,29.89,SE,129,1.0,3.0,95,0.00,,,0.00,weatherlink.com 1.10,2013-07-21 10:35:00,
2013-07-21 05:50:00,73.4,72.0,29.90,ESE,121,0.0,4.0,95,0.00,,,0.00,weatherlink.com 1.10,2013-07-21 10:50:00,
2013-07-21 06:05:00,73.5,72.0,29.90,ESE,119,2.0,4.0,96,0.00,,,0.00,weatherlink.com 1.10,2013-07-21 11:05:00,
2013-07-21 06:20:00,73.4,72.0,29.89,ESE,114,1.0,2.0,96,0.00,,,0.00,weatherlink.com 1.10,2013-07-21 11:20:00,
2013-07-21 06:35:00,73.3,72.0,29.90,ESE,105,1.0,2.0,96,0.00,,,0.00,weatherlink.com 1.10,2013-07-21 11:35:00,
2013-07-21 06:50:00,73.3,72.0,29.90,ESE,118,0.0,2.0,96,0.00,,,0.00,weatherlink.com 1.10,2013-07-21 11:50:00,
2013-07-21 07:05:00,73.5,72.0,29.90,SE,131,1.0,3.0,96,0.00,,,0.00,weatherlink.com 1.10,2013-07-21 12:05:00,
2013-07-21 07:20:00,74.1,73.0,29.90,SE,131,0.0,3.0,97,0.00,,,0.00,weatherlink.com 1.10,2013-07-21 12:20:00,
2013-07-21 07:35:00,75.5,74.0,29.90,SSW,200,1.0,2.0,96,0.00,,,0.00,weatherlink.com 1.10,2013-07-21 12:35:00,
2013-07-21 07:50:00,77.2,75.0,29.91,ESE,117,1.0,5.0,94,0.00,,,0.00,weatherlink.com 1.10,2013-07-21 12:50:00,
2013-07-21 08:05:00,78.1,75.0,29.91,SW,229,0.0,7.0,91,0.00,,,0.00,weatherlink.com 1.10,2013-07-21 13:05:00,
2013-07-21 08:20:00,78.6,75.0,29.91,South,172,0.0,5.0,89,0.00,,,0.00,weatherlink.com 1.10,2013-07-21 13:20:00,
2013-07-21 08:35:00,79.9,76.0,29.92,WSW,241,1.0,4.0,87,0.00,,,0.00,weatherlink.com 1.10,2013-07-21 13:35:00,
2013-07-21 08:50:00,80.8,76.0,29.92,SW,224,4.0,6.0,85,0.00,,,0.00,weatherlink.com 1.10,2013-07-21 13:50:00,
2013-07-21 09:05:00,81.9,77.0,29.92,SSE,151,0.0,6.0,84,0.00,,,0.00,weatherlink.com 1.10,2013-07-21 14:05:00,
2013-07-21 09:20:00,82.8,76.0,29.92,East,101,1.0,8.0,81,0.00,,,0.00,weatherlink.com 1.10,2013-07-21 14:20:00,
2013-07-21 09:35:00,83.7,77.0,29.92,WSW,239,1.0,5.0,80,0.00,,,0.00,weatherlink.com 1.10,2013-07-21 14:35:00,
2013-07-21 09:51:00,84.3,76.0,29.92,WNW,290,1.0,8.0,77,0.00,,,0.00,weatherlink.com 1.10,2013-07-21 14:51:00,
2013-07-21 10:06:00,85.4,77.0,29.92,South,181,1.0,7.0,77,0.00,,,0.00,weatherlink.com 1.10,2013-07-21 15:06:00,
2013-07-21 10:21:00,85.4,76.0,29.92,SE,131,2.0,7.0,74,0.00,,,0.00,weatherlink.com 1.10,2013-07-21 15:21:00,
2013-07-21 10:36:00,86.1,77.0,29.93,SE,145,2.0,8.0,74,0.00,,,0.00,weatherlink.com 1.10,2013-07-21 15:36:00,
2013-07-21 10:51:00,86.7,77.0,29.92,SSW,193,2.0,8.0,72,0.00,,,0.00,weatherlink.com 1.10,2013-07-21 15:51:00,
2013-07-21 11:06:00,87.6,76.0,29.92,SSW,212,0.0,5.0,69,0.00,,,0.00,weatherlink.com 1.10,2013-07-21 16:06:00,
2013-07-21 11:21:00,88.6,77.0,29.92,ESE,121,2.0,5.0,68,0.00,,,0.00,weatherlink.com 1.10,2013-07-21 16:21:00,
2013-07-21 11:36:00,89.3,77.0,29.92,SSW,203,1.0,6.0,67,0.00,,,0.00,weatherlink.com 1.10,2013-07-21 16:36:00,
2013-07-21 11:51:00,89.8,77.0,29.91,NW,324,2.0,5.0,66,0.00,,,0.00,weatherlink.com 1.10,2013-07-21 16:51:00,
2013-07-21 12:06:00,91.0,77.0,29.91,WSW,252,2.0,6.0,63,0.00,,,0.00,weatherlink.com 1.10,2013-07-21 17:06:00,
2013-07-21 12:21:00,91.3,75.0,29.91,ESE,110,0.0,7.0,60,0.00,,,0.00,weatherlink.com 1.10,2013-07-21 17:21:00,
2013-07-21 12:36:00,92.2,75.0,29.91,SE,138,1.0,6.0,58,0.00,,,0.00,weatherlink.com 1.10,2013-07-21 17:36:00,
2013-07-21 12:51:00,92.1,74.0,29.90,WSW,249,0.0,6.0,55,0.00,,,0.00,weatherlink.com 1.10,2013-07-21 17:51:00,
2013-07-21 13:06:00,92.8,73.0,29.90,ESE,105,5.0,6.0,52,0.00,,,0.00,weatherlink.com 1.10,2013-07-21 18:06:00,
2013-07-21 13:21:00,93.1,72.0,29.90,SW,235,4.0,8.0,50,0.00,,,0.00,weatherlink.com 1.10,2013-07-21 18:21:00,
2013-07-21 13:36:00,93.6,74.0,29.88,SSE,148,1.0,5.0,53,0.00,,,0.00,weatherlink.com 1.10,2013-07-21 18:36:00,
2013-07-21 13:51:00,94.8,73.0,29.88,SSW,210,0.0,8.0,49,0.00,,,0.00,weatherlink.com 1.10,2013-07-21 18:51:00,
2013-07-21 14:06:00,94.3,73.0,29.88,SSW,200,1.0,6.0,51,0.00,,,0.00,weatherlink.com 1.10,2013-07-21 19:06:00,
2013-07-21 14:21:00,94.4,73.0,29.88,ESE,117,1.0,7.0,50,0.00,,,0.00,weatherlink.com 1.10,2013-07-21 19:21:00,
2013-07-21 14:36:00,95.2,75.0,29.87,SW,231,1.0,5.0,52,0.00,,,0.00,weatherlink.com 1.10,2013-07-21 19:36:00,
2013-07-21 14:51:00,95.7,74.0,29.87,SSE,165,1.0,5.0,49,0.00,,,0.00,weatherlink.com 1.10,2013-07-21 19:51:00,
2013-07-21 15:06:00,95.8,74.0,29.86,SSW,209,1.0,7.0,49,0.00,,,0.00,weatherlink.com 1.10,2013-07-21 20:06:00,
2013-07-21 15:21:00,96.8,73.0,29.85,ESE,122,1.0,8.0,46,0.00,,,0.00,weatherlink.com 1.10,2013-07-21 20:21:00,
2013-07-21 15:36:00,96.4,73.0,29.84,SSE,163,4.0,6.0,47,0.00,,,0.00,weatherlink.com 1.10,2013-07-21 20:36:00,
2013-07-21 15:51:00,96.6,73.0,29.85,SW,215,2.0,7.0,46,0.00,,,0.00,weatherlink.com 1.10,2013-07-21 20:51:00,
2013-07-21 16:06:00,96.1,73.0,29.84,SSW,197,1.0,7.0,48,0.00,,,0.00,weatherlink.com 1.10,2013-07-21 21:06:00,
2013-07-21 16:21:00,94.7,73.0,29.84,ESE,115,1.0,6.0,49,0.00,,,0.00,weatherlink.com 1.10,2013-07-21 21:21:00,
2013-07-21 16:36:00,95.0,74.0,29.84,ESE,105,0.0,6.0,51,0.00,,,0.00,weatherlink.com 1.10,2013-07-21 21:36:00,
2013-07-21 16:52:00,96.6,74.0,29.83,South,186,2.0,6.0,48,0.00,,,0.00,weatherlink.com 1.10,2013-07-21 21:52:00,
2013-07-21 17:07:00,95.9,73.0,29.83,ESE,121,0.0,7.0,48,0.00,,,0.00,weatherlink.com 1.10,2013-07-21 22:07:00,
2013-07-21 17:22:00,95.5,73.0,29.83,SE,140,2.0,8.0,49,0.00,,,0.00,weatherlink.com 1.10,2013-07-21 22:22:00,
2013-07-21 17:37:00,95.1,72.0,29.83,SE,142,2.0,5.0,48,0.00,,,0.00,weatherlink.com 1.10,2013-07-21 22:37:00,
2013-07-21 17:52:00,94.4,72.0,29.83,SSW,209,2.0,7.0,49,0.00,,,0.00,weatherlink.com 1.10,2013-07-21 22:52:00,
2013-07-21 18:07:00,95.9,73.0,29.83,SSW,210,5.0,6.0,47,0.00,,,0.00,weatherlink.com 1.10,2013-07-21 23:07:00,
2013-07-21 18:22:00,95.7,72.0,29.83,SSE,160,3.0,8.0,47,0.00,,,0.00,weatherlink.com 1.10,2013-07-21 23:22:00,
2013-07-21 18:37:00,95.4,72.0,29.83,SW,224,2.0,6.0,47,0.00,,,0.00,weatherlink.com 1.10,2013-07-21 23:37:00,
2013-07-21 18:52:00,94.4,75.0,29.84,South,186,7.0,20.0,54,0.00,,,0.00,weatherlink.com 1.10,2013-07-21 23:52:00,
2013-07-21 19:07:00,89.6,74.0,29.84,South,173,5.0,11.0,61,0.00,,,0.00,weatherlink.com 1.10,2013-07-22 00:07:00,
2013-07-21 19:22:00,88.3,74.0,29.84,ESE,105,3.0,9.0,62,0.00,,,0.00,weatherlink.com 1.10,2013-07-22 00:22:00,
2013-07-21 19:37:00,87.6,74.0,29.84,East,95,2.0,7.0,65,0.00,,,0.00,weatherlink.com 1.10,2013-07-22 00:37:00,
2013-07-21 19:52:00,86.9,75.0,29.85,ESE,108,3.0,7.0,67,0.00,,,0.00,weatherlink.com 1.10,2013-07-22 00:52:00,
2013-07-21 20:07:00,86.2,75.0,29.85,East,101,2.0,5.0,69,0.00,,,0.00,weatherlink.com 1.10,2013-07-22 01:07:00,
2013-07-21 20:22:00,85.5,75.0,29.85,SE,124,1.0,8.0,70,0.00,,,0.00,weatherlink.com 1.10,2013-07-22 01:22:00,
2013-07-21 20:37:00,84.8,74.0,29.86,West,269,1.0,6.0,71,0.00,,,0.00,weatherlink.com 1.10,2013-07-22 01:37:00,
2013-07-21 20:52:00,84.2,74.0,29.85,ESE,121,3.0,9.0,72,0.00,,,0.00,weatherlink.com 1.10,2013-07-22 01:52:00,
2013-07-21 21:07:00,83.8,74.0,29.86,ESE,105,2.0,5.0,72,0.00,,,0.00,weatherlink.com 1.10,2013-07-22 02:07:00,
2013-07-21 21:22:00,83.3,74.0,29.86,SSW,212,1.0,7.0,74,0.00,,,0.00,weatherlink.com 1.10,2013-07-22 02:22:00,
2013-07-21 21:37:00,82.8,74.0,29.86,ESE,111,0.0,7.0,75,0.00,,,0.00,weatherlink.com 1.10,2013-07-22 02:37:00,
2013-07-21 21:52:00,82.3,74.0,29.87,South,180,3.0,7.0,75,0.00,,,0.00,weatherlink.com 1.10,2013-07-22 02:52:00,
2013-07-21 22:07:00,81.8,73.0,29.88,ESE,115,5.0,5.0,74,0.00,,,0.00,weatherlink.com 1.10,2013-07-22 03:07:00,
2013-07-21 22:22:00,81.5,73.0,29.88,ENE,75,2.0,7.0,75,0.00,,,0.00,weatherlink.com 1.10,2013-07-22 03:22:00,
2013-07-21 22:37:00,81.2,73.0,29.89,South,184,3.0,7.0,76,0.00,,,0.00,weatherlink.com 1.10,2013-07-22 03:37:00,
2013-07-21 22:52:00,80.8,73.0,29.89,SSW,198,0.0,3.0,78,0.00,,,0.00,weatherlink.com 1.10,2013-07-22 03:52:00,
2013-07-21 23:07:00,80.5,73.0,29.89,ESE,114,0.0,4.0,79,0.00,,,0.00,weatherlink.com 1.10,2013-07-22 04:07:00,
2013-07-21 23:22:00,80.0,73.0,29.90,SSE,153,2.0,4.0,80,0.00,,,0.00,weatherlink.com 1.10,2013-07-22 04:22:00,
2013-07-21 23:37:00,79.7,73.0,29.90,ESE,122,1.0,4.0,81,0.00,,,0.00,weatherlink.com 1.10,2013-07-22 04:37:00,
2013-07-21 23:52:00,79.4,74.0,29.91,SSE,159,1.0,5.0,83,0.00,,,0.00,weatherlink.com 1.10,2013-07-22 04:52:00,